Regional Weather Roundup
Issued by NWS

Home | Current Version | Previous Version | Text Only | Print | Product List | Glossary On
Versions: 1 2 3 4 5 6 7 8 9 10 11 12 13 14 15 16 17 18 19 20 21 22 23 24 25 26 27
000
ASUS45 KTFX 271010
RWRMT
MONTANA REGIONAL WEATHER ROUNDUP
NATIONAL WEATHER SERVICE GREAT FALLS MT
400 AM MDT TUE JUN 27 2017

NOTE: "FAIR" INDICATES FEW OR NO CLOUDS BELOW 12000 FEET WITH NO
SIGNIFICANT WEATHER AND/OR OBSTRUCTIONS TO VISIBILITY.

MTZ001>007-043-271100-
WEST OF THE DIVIDE

CITY           SKY/WX    TMP DP  RH WIND       PRES   REMARKS
KALISPELL      CLOUDY    58  58 100 NW3       29.79F
MISSOULA       MOCLDY    63  54  72 SE8       29.83F
BUTTE          PTCLDY    55  51  86 CALM      29.96F
MULLAN PASS    CLOUDY    54  44  69 SW10G18   29.96S
ANACONDA         N/A     57  48  72 S8        29.91F
DEER LODGE       N/A     55  52  88 CALM      29.92F
EUREKA           N/A     63  54  72 CALM      29.74F
HAMILTON         N/A     59  54  82 S9        29.88F
$$

MTZ008-052>055-271100-
SOUTHWEST MONTANA

CITY           SKY/WX    TMP DP  RH WIND       PRES   REMARKS
BOZEMAN        MOCLDY    59  53  80 S9        29.90F
DILLON         CLOUDY    56  48  74 SW7       29.94F
W YELLOWSTONE  CLOUDY    57  45  62 S6        30.05F
ENNIS          CLEAR     57  48  72 CALM      29.98F
THREE FORKS      N/A     57  53  86 CALM      29.90F
$$

MTZ009-010-012-014-046-048-049-054-271100-
EAST SLOPES AND CENTRAL MONTANA

CITY           SKY/WX    TMP DP  RH WIND       PRES   REMARKS
CUT BANK       CLOUDY    62  50  64 SW8       29.71F
GREAT FALLS    LGT RAIN  66  49  54 S20G31    29.74F
MALMSTROM AFB  CLOUDY    65  51  60 S25G31    29.76F
HELENA         CLOUDY    64  54  69 S6        29.83F
CHOTEAU          N/A     68  45  42 W9G18     29.78S
$$

MTZ011-013-016-021-045-047-050-051-271100-
NORTH CENTRAL MONTANA

CITY           SKY/WX    TMP DP  RH WIND       PRES   REMARKS
HAVRE          CLOUDY    63  51  65 SW6       29.65S
LEWISTOWN      CLOUDY    60  49  66 N5        29.77F
N BAR RANCH    MOCLDY    75  39  27 W20G26    29.78F
CHINOOK          N/A     55  54  94 CALM      29.64S
$$

MTZ017>020-022>027-061-062-271100-
NORTHEAST MONTANA

CITY           SKY/WX    TMP DP  RH WIND       PRES   REMARKS
GLASGOW        CLOUDY    66  39  37 SE12      29.61F
JORDAN           N/A     60  43  53 W6        29.63S
SIDNEY         CLOUDY    65  43  44 SE9       29.73F
WOLF POINT     CLOUDY    71  40  32 E8        29.64F
MALTA          CLEAR     55  50  82 CALM      29.61F
PLENTYWOOD       N/A     64  43  45 SE14G20   29.67F
POPLAR           N/A     70  41  35 E12       29.65F
$$

MTZ028>42-056>058-271100-
SOUTHCENTRAL AND SOUTHEAST MONTANA

CITY           SKY/WX    TMP DP  RH WIND       PRES   REMARKS
BAKER          PTCLDY    59  38  45 SE10      29.76F
BILLINGS       CLOUDY    71  44  37 SW6       29.76F
LIVINGSTON     CLOUDY    65  49  56 W16       29.89F
MILES CITY     CLOUDY    68  40  35 S15       29.64F
BIG TIMBER     CLEAR     66  46  48 W22G28    29.85F
ROUNDUP          N/A     75  40  28 SW9       29.67F
$$

REGIONAL REPORTS...DAKOTAS

CITY           SKY/WX    TMP DP  RH WIND       PRES   REMARKS
WILLISTON      CLOUDY    67  42  40 S13G22    29.72F
MINOT          PTCLDY    63  38  39 S21G31    29.79F
DICKINSON      CLOUDY    58  33  39 S18G29    29.76F
BEACH            N/A     59  39  47 S16G22    29.78S
CROSBY           N/A     61  43  51 S16G23    29.71F
TIOGA            N/A     61  41  48 S14       29.79F
WATFORD CITY     N/A     64  39  39 SW8G16    29.78R
BISMARCK       CLOUDY    58  40  51 SE13      29.90F
GRAND FORKS    CLOUDY    49  44  83 S7        29.94F
FARGO          CLEAR     52  42  69 S9        29.99F
BUFFALO SD       N/A     57  40  52 SE12      29.73F
RAPID CITY     PTCLDY    61  42  49 S15       29.86F
$$

REGIONAL REPORTS...WYOMING/IDAHO/WASHINGTON

CITY           SKY/WX    TMP DP  RH WIND       PRES   REMARKS
GILLETTE       CLOUDY    62  47  57 E9        29.83F
SHERIDAN       CLOUDY    56  45  66 CALM      29.76S
BUFFALO WY     CLOUDY    61  41  47 CALM      29.82F
CODY           CLOUDY    71  39  31 CALM      29.88S
YELLOWSTONE LA   N/A     57  38  48 W13G22    30.15R
IDAHO FALLS    PTCLDY    67  50  54 E9        29.91F
SALMON         PTCLDY    55  52  88 N6        29.91F
BOISE          PTCLDY    65  50  58 NW10      29.89R
SPOKANE        PTCLDY    63  55  75 SW17      29.80R
$$

REGIONAL REPORTS...ALBERTA

CITY           SKY/WX    TMP DP  RH WIND       PRES   REMARKS
EDMONTON       PTCLDY    55  52  88 W14       29.64R
CALGARY        MOCLDY    57  46  67 N20G26    29.70R
LETHBRIDGE     CLOUDY    68  46  45 SW14      29.64S
MEDICINE HAT   CLEAR     61  52  72 W5        29.58R
WATERTON GATE    N/A     66  45  45 SW14G31     N/A
CARDSTON         N/A     64  46  52 S5          N/A
MILK RIVER       N/A     64  52  63 NW10        N/A
$$

REGIONAL REPORTS...SASKATCHEWAN

CITY           SKY/WX    TMP DP  RH WIND       PRES   REMARKS
SWIFT CURRENT  CLEAR     64  48  55 SW17      29.56F
SASKATOON      PTCLDY    63  43  48 S12       29.49F
CYPRESS HILLS    N/A     61  43  51 W8          N/A
VAL MARIE        N/A     57  43  58 SW9         N/A
ROCKGLEN         N/A     63  39  42 S10         N/A
$$




USA.gov is the U.S. government's official web portal to all federal, state and local government web resources and services.